COSMOS 1275 DEB, 12737

Orbit data source: Space-Track

COSMOS 1275 DEB, 12737 is space debris in LEO originally from a launch on Thu, 04 Jun 1981 UTC launched from the Plesetsk Missile And Space Complex (PKMTR). Debris objects in space refer to the collection of defunct objects orbiting the Earth. Examples of debris include non-operational satellites, rocket bodies, and fragments generated from explosions, collisions, or faulty payload assembly.

Loading next visibility...
Identifier
12737, 1981-053CE
Orbit
LEO
Country
Flag of CISCIS
Related business
Manufacturer
Unknown
Mission
Spacecraft
Bus & Motor
Unknown
Mass
Unknown
Launch date (UTC)
1981-06-04 (44 years ago)
Launch vehicle
Unknown
Launch site
Plesetsk Missile And Space Complex (PKMTR)
Object type
Payload
Rocket body
Debris
Shape & HBR
Unknown shape, 0.2 m
Radar Cross Section
Small (<0.1 m²)

Expand to show TLE details & history
Last TLE update: 5 hours ago

TLE from 5 hours ago
0 COSMOS 1275 DEB
1 12737U 81053CE  25299.20257204  .00001267  00000-0  12563-2 0  9991
2 12737  82.9812  89.4159 0146685  43.5239 134.5454 13.72960123194648
Epoch: 2025-10-26T04:51Z
TLE epoch observation values (Epoch: 2025-10-26T04:51:42.224Z)
Latitude
0.63207°
Longitude
161.59039°
Altitude
1,068.395 km
Speed
7.28 km/s
True Right ascension
17h 57m 21s
True Declination
0° 37' 42"
Sunlit
Object was in daylight at epoch
Visualization orbit readout
Latitude
Unknown
Longitude
Unknown
Altitude
Unknown
Speed
Unknown
Apparent Right ascension
Unknown
Apparent Declination
Unknown
Sunlit
N/A
Visualization observer readout
Local Sidereal Time
05:01:55
Azimuth
Unknown
Elevation
Unknown
Doppler factor
Unknown
Orbital elements
Apogee altitude
1,094.135 km
Perigee altitude
878.09 km
Semi-major axis
7,364.249 km
Eccentricity
0.01467
Inclination
82.9812°
RAAN
89.4159°
Arg. of periapsis
43.5239°
True anomaly
135.72806°
Mean anomaly
134.5454°
Eccentric anomaly
135.13825°
Mean motion
3.4344 °/min
Orbital period
104.82 mins
BSTAR
0.0012563
Loading maneuver chart data...
Computing Atmospheric mass density...

Documentation

Showing up to 5 results
|